When you browse on this site, cookies collect data to enhance your experience and personalize the content and advertising you see.
Visit our Privacy Policy to learn more. By continuing to use the site, you agree to this use of cookies and data.
  • In France
  • List of Countries
  • For 7 days
  • Water Temperature
  • Weather Map
  • Weather Widgets
  • user-avatar
    Login

    Hourly Weather Molepolole

    Today, 21 November, Thursday

    Time Temperature Precipitation Wind Pressure Humidity
    00:00 +21°C° 2.1 mm 7 mps 662 mmHg 84%
    01:00 +21°C° 2.1 mm 6 mps 661 mmHg 86%
    02:00 +20°C° 2.1 mm 6 mps 661 mmHg 88%
    03:00 +20°C° 1 mm 5 mps 661 mmHg 88%
    04:00 +20°C° 1 mm 4 mps 661 mmHg 89%
    05:00 +20°C° 1 mm 4 mps 661 mmHg 90%
    06:00 +21°C° 0.2 mm 4 mps 662 mmHg 86%
    07:00 +22°C° 0.2 mm 5 mps 662 mmHg 82%
    08:00 +23°C° 0.2 mm 5 mps 663 mmHg 79%
    09:00 +26°C° 0 mm 5 mps 663 mmHg 69%
    10:00 +29°C° 0 mm 5 mps 664 mmHg 58%
    11:00 +32°C° 0 mm 5 mps 664 mmHg 48%
    12:00 +33°C° 0 mm 4 mps 664 mmHg 43%
    13:00 +34°C° 0 mm 4 mps 663 mmHg 39%
    14:00 +35°C° 0 mm 3 mps 663 mmHg 34%
    15:00 +35°C° 0 mm 3 mps 662 mmHg 35%
    16:00 +34°C° 0 mm 3 mps 661 mmHg 36%
    17:00 +33°C° 0 mm 3 mps 661 mmHg 37%
    18:00 +29°C° 0.4 mm 4 mps 661 mmHg 50%
    19:00 +27°C° 0.4 mm 4 mps 660 mmHg 62%
    20:00 +23°C° 0.4 mm 5 mps 660 mmHg 75%
    21:00 +22°C° 0.2 mm 5 mps 661 mmHg 75%
    22:00 +22°C° 0.2 mm 5 mps 662 mmHg 74%
    23:00 +21°C° 0.2 mm 5 mps 662 mmHg 74%

    Tomorrow, 22 November, Friday

    Time Temperature Precipitation Wind Pressure Humidity
    00:00 +21°C° 0.2 mm 5 mps 662 mmHg 76%
    01:00 +20°C° 0.2 mm 4 mps 662 mmHg 79%
    02:00 +20°C° 0.2 mm 3 mps 661 mmHg 81%
    03:00 +20°C° 0.1 mm 4 mps 661 mmHg 79%
    04:00 +20°C° 0.1 mm 4 mps 661 mmHg 77%
    05:00 +20°C° 0.1 mm 4 mps 661 mmHg 75%
    06:00 +22°C° 0.1 mm 4 mps 662 mmHg 69%
    07:00 +23°C° 0.1 mm 4 mps 663 mmHg 64%
    08:00 +26°C° 0.1 mm 3 mps 663 mmHg 59%
    09:00 +28°C° 0 mm 4 mps 663 mmHg 52%
    10:00 +30°C° 0 mm 5 mps 664 mmHg 46%
    11:00 +33°C° 0 mm 5 mps 664 mmHg 39%
    12:00 +35°C° 0 mm 5 mps 664 mmHg 35%
    13:00 +36°C° 0 mm 4 mps 663 mmHg 30%
    14:00 +37°C° 0 mm 4 mps 663 mmHg 25%
    15:00 +33°C° 1.8 mm 5 mps 662 mmHg 40%
    16:00 +29°C° 1.8 mm 7 mps 660 mmHg 54%
    17:00 +24°C° 1.8 mm 9 mps 659 mmHg 69%
    18:00 +23°C° 0.9 mm 8 mps 659 mmHg 66%
    19:00 +23°C° 0.9 mm 7 mps 660 mmHg 63%
    20:00 +23°C° 0.9 mm 6 mps 661 mmHg 59%
    21:00 +22°C° 0.1 mm 5 mps 661 mmHg 62%
    22:00 +22°C° 0.1 mm 4 mps 662 mmHg 64%
    23:00 +22°C° 0.1 mm 3 mps 662 mmHg 66%

    Day after tomorrow, 23 November, Saturday

    Time Temperature Precipitation Wind Pressure Humidity
    00:00 +23°C° 0 mm 2 mps 662 mmHg 67%
    01:00 +23°C° 0 mm 2 mps 661 mmHg 68%
    02:00 +23°C° 0 mm 1 mps 661 mmHg 69%
    03:00 +23°C° 0 mm 1 mps 661 mmHg 69%
    04:00 +22°C° 0 mm 1 mps 661 mmHg 70%
    05:00 +21°C° 0 mm 2 mps 661 mmHg 70%
    06:00 +24°C° 0 mm 2 mps 662 mmHg 64%
    07:00 +25°C° 0 mm 1 mps 663 mmHg 57%
    08:00 +27°C° 0 mm 1 mps 663 mmHg 51%
    09:00 +29°C° 0 mm 2 mps 664 mmHg 46%
    10:00 +31°C° 0 mm 2 mps 664 mmHg 40%
    11:00 +33°C° 0 mm 3 mps 664 mmHg 35%
    12:00 +35°C° 0 mm 3 mps 664 mmHg 32%
    13:00 +36°C° 0 mm 4 mps 664 mmHg 28%
    14:00 +37°C° 0 mm 4 mps 663 mmHg 25%
    15:00 +35°C° 0.1 mm 5 mps 662 mmHg 30%
    16:00 +33°C° 0.1 mm 6 mps 661 mmHg 35%
    17:00 +30°C° 0.1 mm 7 mps 660 mmHg 40%
    18:00 +29°C° 0.1 mm 5 mps 661 mmHg 40%
    19:00 +29°C° 0.1 mm 4 mps 661 mmHg 40%
    20:00 +28°C° 0.1 mm 2 mps 662 mmHg 40%
    21:00 +28°C° 0 mm 2 mps 662 mmHg 41%
    22:00 +28°C° 0 mm 1 mps 662 mmHg 41%
    23:00 +27°C° 0 mm 1 mps 663 mmHg 42%

    24 November, Sunday

    Time Temperature Precipitation Wind Pressure Humidity
    00:00 +27°C° 0 mm 1 mps 662 mmHg 45%
    01:00 +26°C° 0 mm 1 mps 662 mmHg 47%
    02:00 +25°C° 0 mm 1 mps 662 mmHg 49%
    03:00 +25°C° 0 mm 1 mps 662 mmHg 51%
    04:00 +24°C° 0 mm 1 mps 662 mmHg 52%
    05:00 +24°C° 0 mm 1 mps 662 mmHg 53%
    06:00 +26°C° 0 mm 1 mps 663 mmHg 48%
    07:00 +27°C° 0 mm 1 mps 664 mmHg 44%
    08:00 +29°C° 0 mm 2 mps 664 mmHg 39%
    09:00 +31°C° 0 mm 2 mps 665 mmHg 35%
    10:00 +32°C° 0 mm 2 mps 665 mmHg 31%
    11:00 +35°C° 0 mm 2 mps 665 mmHg 27%
    12:00 +36°C° 0 mm 3 mps 665 mmHg 25%
    13:00 +37°C° 0 mm 3 mps 664 mmHg 22%
    14:00 +38°C° 0 mm 3 mps 664 mmHg 19%
    15:00 +38°C° 0 mm 3 mps 663 mmHg 19%
    16:00 +38°C° 0 mm 3 mps 663 mmHg 18%
    17:00 +37°C° 0 mm 3 mps 662 mmHg 18%
    18:00 +36°C° 0 mm 3 mps 662 mmHg 20%
    19:00 +34°C° 0 mm 2 mps 662 mmHg 22%
    20:00 +31°C° 0 mm 2 mps 662 mmHg 23%
    21:00 +30°C° 0 mm 2 mps 662 mmHg 24%
    22:00 +29°C° 0 mm 2 mps 662 mmHg 25%
    23:00 +29°C° 0 mm 2 mps 663 mmHg 26%

    25 November, Monday

    Time Temperature Precipitation Wind Pressure Humidity
    00:00 +28°C° 0 mm 1 mps 663 mmHg 27%
    01:00 +27°C° 0 mm 1 mps 663 mmHg 29%
    02:00 +24°C° 0 mm 0 mps 663 mmHg 31%
    03:00 +25°C° 0 mm 1 mps 663 mmHg 37%
    04:00 +25°C° 0 mm 2 mps 663 mmHg 44%
    05:00 +24°C° 0 mm 3 mps 663 mmHg 50%
    06:00 +25°C° 0 mm 3 mps 664 mmHg 50%
    07:00 +27°C° 0 mm 4 mps 664 mmHg 51%
    08:00 +28°C° 0 mm 4 mps 665 mmHg 51%
    09:00 +30°C° 0 mm 4 mps 665 mmHg 42%
    10:00 +34°C° 0 mm 4 mps 666 mmHg 32%
    11:00 +36°C° 0 mm 3 mps 666 mmHg 23%
    12:00 +37°C° 0 mm 3 mps 665 mmHg 20%
    13:00 +38°C° 0 mm 3 mps 665 mmHg 18%
    14:00 +39°C° 0 mm 3 mps 664 mmHg 15%
    15:00 +39°C° 0 mm 3 mps 664 mmHg 14%
    16:00 +39°C° 0 mm 2 mps 664 mmHg 12%
    17:00 +39°C° 0 mm 2 mps 664 mmHg 11%
    18:00 +36°C° 0 mm 2 mps 663 mmHg 13%
    19:00 +34°C° 0 mm 2 mps 663 mmHg 16%
    20:00 +31°C° 0 mm 3 mps 663 mmHg 19%
    21:00 +30°C° 0 mm 3 mps 663 mmHg 24%
    22:00 +29°C° 0 mm 3 mps 663 mmHg 29%
    23:00 +28°C° 0 mm 3 mps 663 mmHg 33%

    26 November, Tuesday

    Time Temperature Precipitation Wind Pressure Humidity
    00:00 +27°C° 0 mm 3 mps 663 mmHg 34%
    01:00 +27°C° 0 mm 2 mps 662 mmHg 36%
    02:00 +26°C° 0 mm 2 mps 662 mmHg 37%
    03:00 +25°C° 0 mm 2 mps 662 mmHg 39%
    04:00 +25°C° 0 mm 2 mps 662 mmHg 41%
    05:00 +25°C° 0 mm 3 mps 663 mmHg 44%
    06:00 +26°C° 0 mm 4 mps 664 mmHg 43%
    07:00 +28°C° 0 mm 5 mps 665 mmHg 43%
    08:00 +29°C° 0 mm 6 mps 666 mmHg 43%
    09:00 +32°C° 0 mm 6 mps 666 mmHg 38%
    10:00 +34°C° 0 mm 5 mps 666 mmHg 34%
    11:00 +36°C° 0 mm 5 mps 667 mmHg 29%
    12:00 +37°C° 0 mm 4 mps 666 mmHg 24%
    13:00 +38°C° 0 mm 3 mps 666 mmHg 20%
    14:00 +39°C° 0 mm 2 mps 665 mmHg 16%
    15:00 +38°C° 0 mm 2 mps 665 mmHg 17%
    16:00 +37°C° 0 mm 2 mps 664 mmHg 18%
    17:00 +37°C° 0 mm 3 mps 664 mmHg 19%
    18:00 +35°C° 0 mm 3 mps 664 mmHg 23%
    19:00 +34°C° 0 mm 3 mps 664 mmHg 26%
    20:00 +33°C° 0 mm 4 mps 664 mmHg 30%
    21:00 +30°C° 0 mm 5 mps 664 mmHg 38%
    22:00 +28°C° 0 mm 6 mps 664 mmHg 46%
    23:00 +27°C° 0 mm 7 mps 664 mmHg 55%
    Show more